Theta_e
291 290 291 291 291 291 291 290 290 291 292 292 291 291 290 290 291 291 292 291 291 292 291 292 294 295 298 300 301 301 302 303 304 304 303 302 303 303 303 304 304 305 305 304 303 304 305 304 303 304 304 303 304 304 303 303 303 303 303 303 304 306 306 306 304 302 303 303 302 303 302 301 301 302 302 302 302 303 306 306 305 307 307 305 306 306 305
290 290 290 290 290 290 290 290 290 290 291 291 291 290 290 291 291 291 291 291 292 292 291 291 292 293 295 297 300 301 302 302 303 303 303 302 302 302 303 303 303 304 304 304 303 304 305 305 304 304 304 304 304 303 303 303 303 303 304 303 304 304 305 306 306 305 306 306 304 302 302 301 301 301 301 301 301 302 303 303 302 305 307 306 308 306 305
290 290 290 290 290 290 290 290 290 290 290 291 290 289 289 291 291 291 292 292 292 292 291 292 292 292 293 294 296 298 300 301 302 302 302 302 302 302 302 303 303 303 304 304 303 304 305 305 305 304 304 304 303 303 303 303 303 304 305 305 304 304 305 305 305 307 308 307 306 305 303 301 302 302 301 300 301 301 302 304 304 304 304 304 305 305 304
290 290 290 290 290 290 290 290 290 290 290 290 290 290 290 291 290 291 292 292 292 292 292 292 292 292 293 293 293 294 295 297 300 301 302 301 302 303 302 303 303 303 304 304 303 303 304 305 306 305 304 304 303 302 302 303 304 304 306 305 304 306 306 304 305 307 307 307 309 307 304 303 302 303 301 300 301 300 302 305 305 304 304 302 303 304 304
290 290 290 289 289 289 290 290 290 290 289 290 290 290 290 290 290 290 291 291 291 291 292 292 292 292 293 293 293 293 294 295 298 301 302 302 301 302 302 303 303 303 303 303 304 304 303 304 305 304 303 303 302 301 302 303 304 305 306 306 304 305 306 305 305 306 306 309 311 307 304 304 303 303 302 300 300 300 301 303 303 303 304 304 303 303 303
290 289 289 289 289 289 289 289 290 290 289 289 289 289 289 290 290 290 290 289 290 290 291 292 292 292 293 293 293 294 294 295 296 299 301 302 302 302 302 303 303 303 303 303 304 304 304 304 304 304 303 302 302 302 301 301 304 305 305 304 304 304 305 305 305 305 305 307 309 305 303 304 303 302 303 301 300 300 300 301 302 302 303 304 304 303 303
289 289 289 289 289 289 289 289 290 289 289 290 289 289 289 289 290 290 290 289 289 290 290 290 291 291 291 292 292 292 293 294 294 296 298 299 301 302 303 303 303 303 303 304 304 304 305 304 304 304 303 302 303 304 303 301 303 304 304 304 304 304 304 304 304 304 303 304 305 304 303 304 303 302 302 302 301 300 300 300 301 301 301 302 303 304 303
289 289 290 289 289 289 289 289 290 289 289 289 289 289 289 289 289 289 289 289 289 290 290 290 290 290 290 291 291 291 292 292 292 293 295 296 298 299 300 301 302 302 303 303 303 304 304 304 304 304 303 302 302 304 304 304 303 302 303 304 304 304 304 304 303 303 304 303 303 304 303 304 304 303 302 302 302 301 301 300 300 300 301 301 301 302 302
289 289 289 289 289 289 289 289 290 290 289 289 288 289 289 289 289 289 289 288 289 289 289 289 289 289 290 290 290 290 291 292 292 292 293 294 295 295 296 297 298 299 301 303 303 304 304 304 304 304 303 303 302 303 305 305 303 301 302 303 304 304 305 305 304 304 304 303 303 304 303 302 303 303 302 302 302 302 302 301 301 301 301 300 301 301 301
289 288 289 289 289 289 289 289 289 289 289 289 288 289 289 289 289 289 288 288 289 289 289 289 289 289 289 289 290 290 291 292 292 292 292 294 295 295 295 295 294 294 296 299 301 302 302 303 303 303 303 303 302 303 305 304 302 302 302 303 304 304 304 304 304 304 305 304 304 303 303 303 304 304 303 302 302 302 302 302 302 301 301 301 302 302 302
289 288 289 289 289 289 289 289 289 289 289 289 288 288 289 289 289 289 288 288 289 289 288 289 289 289 289 289 290 290 290 291 291 291 292 294 294 294 293 293 293 293 293 296 297 297 297 299 302 303 304 304 302 303 305 304 302 302 302 303 304 304 303 304 304 305 305 305 304 303 304 305 305 304 304 303 302 302 302 302 302 302 301 301 302 303 302
288 288 288 289 289 289 289 289 289 289 289 289 288 288 289 289 289 288 287 287 288 289 288 288 289 289 289 289 289 290 290 290 290 291 291 292 292 292 292 292 292 293 294 296 297 297 297 298 301 302 303 303 302 302 304 304 303 303 302 302 304 304 304 304 304 304 305 304 304 304 305 305 304 306 306 303 302 302 302 302 302 302 302 302 302 303 302
288 288 288 288 288 288 288 289 289 289 289 289 289 288 288 288 288 288 288 288 288 288 288 288 288 288 288 289 289 289 289 289 290 290 290 290 290 291 291 292 292 293 295 296 297 297 297 298 300 302 302 302 302 302 302 303 303 302 302 302 303 304 304 304 304 304 305 304 304 305 306 305 305 307 306 302 302 302 302 302 302 301 302 302 302 302 302
288 288 288 288 288 288 288 288 289 289 289 290 289 289 289 288 288 288 288 287 287 288 288 288 288 288 288 288 288 289 289 289 289 289 290 290 290 291 291 293 294 294 295 295 295 296 297 298 301 302 302 302 302 301 302 302 302 302 302 302 302 303 304 304 304 304 304 304 303 304 306 306 306 306 304 301 302 302 302 303 303 301 301 301 301 302 301
287 288 288 288 288 288 288 288 289 288 289 289 289 288 289 289 288 288 288 288 288 288 288 288 288 288 288 288 288 288 288 288 289 289 290 290 291 291 292 293 294 294 294 294 295 296 297 299 301 303 302 303 303 303 302 301 301 301 301 301 302 302 303 304 304 305 304 304 304 304 305 305 304 304 303 301 301 302 301 303 304 303 302 301 301 301 301
287 287 288 288 288 288 288 288 289 288 289 289 288 288 288 288 288 288 288 288 288 288 288 288 288 288 288 288 288 288 288 288 289 289 289 290 290 291 292 294 294 294 294 294 295 297 297 298 301 303 303 303 303 304 303 302 302 301 301 301 301 302 302 303 304 304 304 304 304 304 305 304 304 305 304 301 301 301 301 302 304 304 303 303 301 301 302
287 287 287 288 288 288 288 288 289 289 289 289 289 288 288 288 288 288 288 288 288 288 288 289 288 288 288 288 288 288 288 289 289 289 289 289 290 290 291 293 294 295 295 295 296 297 298 298 300 302 303 302 302 304 304 303 303 302 301 301 301 301 302 303 303 304 304 304 304 304 304 304 305 306 304 299 299 301 302 305 307 306 304 303 301 301 301
287 287 287 287 288 288 287 287 288 289 289 289 289 288 289 289 288 288 288 288 288 288 288 289 288 288 288 288 288 288 288 289 289 289 289 289 290 290 290 292 295 295 295 295 296 297 298 299 300 302 303 303 303 303 304 304 303 302 302 302 302 302 302 302 303 303 304 304 304 304 304 304 305 305 301 298 299 302 303 306 308 307 306 303 302 302 301
287 287 287 287 287 288 287 287 288 288 289 289 288 288 289 289 288 288 288 288 288 288 289 288 288 288 288 288 288 288 288 289 289 289 289 289 291 292 291 292 294 294 294 295 295 295 296 298 299 301 303 303 302 303 304 305 303 302 301 302 302 302 302 302 303 303 303 304 305 304 304 304 304 301 299 298 301 303 303 305 307 309 309 304 302 303 303
286 287 287 287 287 287 287 288 288 288 288 289 288 288 288 288 288 288 288 287 287 287 288 288 288 289 288 288 288 288 288 288 288 289 289 289 290 291 289 289 292 293 293 293 293 293 294 296 299 302 303 303 302 302 303 304 304 302 301 301 302 302 302 302 302 303 303 304 304 305 305 305 302 300 298 299 302 305 307 306 306 310 312 308 304 305 305
286 286 287 287 287 287 287 288 288 288 288 288 288 288 288 288 288 288 288 287 286 286 287 288 288 288 288 288 288 288 288 288 288 289 289 288 289 290 289 289 291 293 293 293 294 295 295 296 297 298 298 300 302 303 303 304 304 303 301 301 302 302 302 302 302 302 304 304 304 305 306 304 301 301 301 300 302 307 312 309 306 308 312 312 309 307 304
286 286 286 286 286 287 287 288 288 287 287 288 288 288 288 288 288 288 288 287 286 287 288 288 288 288 288 288 288 288 288 288 288 288 289 289 289 290 290 290 291 292 292 293 293 293 293 294 294 293 292 295 298 301 302 303 304 303 301 302 303 302 302 303 303 302 303 303 303 304 305 302 300 301 304 302 301 305 308 308 307 310 310 308 309 309 304
286 286 286 286 286 287 287 287 288 288 287 288 288 288 288 288 288 288 288 287 286 287 288 288 288 288 288 288 288 288 288 288 288 288 288 289 289 289 290 290 290 291 292 292 292 291 292 292 292 292 293 294 296 296 297 300 303 303 301 301 302 302 302 303 303 303 302 302 303 303 304 302 300 300 303 303 302 302 303 305 308 311 309 304 306 310 307
286 286 286 285 286 287 287 287 287 287 287 287 288 288 288 288 288 288 287 286 286 286 286 287 287 287 288 288 288 288 288 288 288 288 288 288 289 289 289 290 290 290 292 292 292 291 291 292 293 293 293 294 295 295 295 296 299 301 302 301 301 301 302 302 303 303 303 302 302 303 302 301 300 300 300 302 302 301 301 303 305 307 307 305 305 308 307
286 286 286 285 286 286 287 287 287 287 287 287 287 288 288 288 288 288 287 286 286 286 286 287 287 287 288 288 288 288 288 288 288 289 289 288 289 288 289 290 290 290 291 292 292 291 291 292 292 292 293 294 294 294 293 294 295 298 300 300 300 301 301 301 302 303 303 302 302 302 302 300 300 300 299 300 301 302 302 302 302 303 304 303 303 304 303
286 285 285 286 286 286 287 288 288 287 287 287 287 288 288 288 288 287 287 286 286 286 286 286 287 287 288 288 288 287 288 288 288 288 289 289 289 289 289 289 289 290 291 292 291 291 291 292 292 292 292 293 293 293 293 293 294 295 295 295 297 299 300 301 302 302 302 302 302 302 302 301 300 300 300 299 300 301 302 301 300 301 301 300 301 301 301
285 285 285 285 285 286 287 287 288 287 287 287 287 287 287 288 288 287 287 286 286 286 285 285 286 286 286 287 288 287 287 288 288 288 288 288 289 289 289 289 290 290 290 290 291 291 291 291 291 291 291 291 292 293 293 293 293 293 293 293 295 296 298 301 303 302 301 302 302 302 302 302 301 301 300 299 298 299 299 299 299 300 300 299 299 299 299
284 284 285 285 285 286 286 287 287 287 287 287 287 287 287 287 287 287 287 287 287 287 285 285 286 286 286 286 287 287 287 287 287 287 287 287 288 288 289 289 289 289 290 290 290 290 290 290 290 290 291 291 291 291 292 292 292 293 293 294 295 295 297 299 301 301 301 301 301 301 301 301 301 301 300 300 299 298 298 298 298 298 298 298 298 299 298
284 284 285 285 285 286 286 287 287 287 287 287 287 286 286 286 286 287 287 287 287 287 286 286 286 287 286 286 286 286 286 287 287 287 287 287 287 288 288 288 289 289 289 290 290 290 290 290 290 291 291 292 292 291 292 293 293 293 294 295 296 297 298 300 300 300 301 301 301 301 301 300 301 301 301 301 300 299 299 299 298 298 298 298 298 298 298
284 285 285 285 286 286 286 287 287 287 288 287 286 285 285 286 286 287 287 287 287 286 286 287 287 287 287 287 287 286 287 286 287 287 287 287 288 288 288 288 288 289 289 289 290 290 290 290 291 291 291 292 292 292 292 293 293 293 294 295 296 297 298 299 300 300 300 300 300 300 301 301 301 301 302 303 302 301 301 301 300 299 298 298 298 298 298
284 285 285 285 286 286 286 287 287 287 287 287 286 285 285 286 286 286 286 287 287 285 285 286 287 286 287 287 287 287 287 287 287 287 287 288 288 288 289 289 289 289 289 289 289 290 290 290 291 291 292 292 292 292 292 292 292 293 293 293 294 294 295 297 300 301 301 300 300 299 300 301 301 301 301 302 302 302 302 302 301 300 300 299 298 298 298
285 285 285 285 285 286 286 287 287 287 287 286 286 286 286 286 287 286 286 287 287 285 285 286 286 285 287 288 287 286 285 286 287 287 287 288 288 288 288 289 289 290 289 289 290 290 290 290 290 291 292 293 293 293 293 292 292 293 293 293 293 294 296 298 300 301 301 301 301 300 300 300 301 300 300 301 302 301 301 301 301 301 300 300 299 299 298
285 285 286 286 285 285 286 287 286 286 286 286 286 286 286 286 287 287 287 287 286 284 285 286 286 286 286 286 285 284 284 286 287 287 287 289 289 289 289 289 289 290 290 289 289 289 290 290 290 290 291 292 293 293 293 293 293 293 292 293 293 294 294 296 298 301 302 300 299 299 300 300 300 300 299 300 301 300 300 300 301 300 300 300 300 299 299
285 285 285 286 286 286 286 286 285 285 285 285 285 286 286 286 287 287 287 286 284 283 284 285 285 285 285 285 285 285 286 288 287 286 287 289 289 288 289 289 289 289 289 289 289 289 290 290 290 290 291 291 291 291 292 292 292 293 293 292 289 287 290 295 297 297 294 289 286 288 292 295 297 298 298 299 299 299 299 299 299 300 300 300 300 300 299
284 285 285 285 285 285 285 284 285 285 285 284 285 285 285 286 286 286 286 286 284 284 284 284 284 285 285 284 284 284 285 287 287 286 287 288 289 288 289 289 288 288 289 289 289 289 289 290 290 290 290 290 290 291 292 292 292 292 291 286 280 279 286 292 290 285 280 277 278 281 285 288 292 295 297 298 299 299 299 299 299 300 301 301 300 299 299
284 285 285 284 284 284 284 284 285 286 285 284 284 285 285 285 286 286 286 285 284 284 284 283 283 285 284 283 283 284 284 286 287 287 286 287 288 288 287 287 288 288 287 287 288 289 289 290 290 289 289 290 291 290 287 286 287 286 282 276 273 273 276 277 276 273 272 274 279 282 284 287 291 294 296 297 298 298 298 298 298 299 300 301 300 299 298
284 284 284 283 283 284 285 285 285 284 284 284 284 284 285 285 286 285 285 284 284 283 282 282 283 284 283 283 284 285 285 285 286 287 287 287 288 288 285 285 287 288 286 285 288 290 290 290 290 289 290 290 287 281 276 275 275 275 273 270 269 269 269 269 270 270 273 279 283 282 282 284 286 286 288 289 291 292 295 295 294 295 296 297 298 298 298
283 283 283 283 283 284 285 285 284 283 284 284 284 284 285 285 285 285 285 285 285 283 282 283 284 284 283 284 285 285 285 284 284 285 285 286 287 287 286 286 288 288 286 286 289 289 289 289 289 290 289 284 277 271 270 270 270 269 268 267 267 267 267 268 268 269 273 279 280 277 276 279 279 278 278 280 282 284 286 285 284 285 288 289 290 292 294
282 283 283 282 283 283 284 284 283 283 283 283 283 284 284 284 284 284 284 284 284 284 284 284 284 284 283 284 285 285 285 284 285 285 285 285 285 285 285 287 288 287 286 288 289 288 288 288 287 288 289 285 276 269 268 268 268 267 266 266 266 266 266 266 267 267 269 272 272 271 271 273 273 273 273 275 276 278 279 279 278 279 281 283 284 285 286
282 282 282 281 282 282 283 283 282 282 283 283 283 283 283 283 283 284 283 283 283 283 283 283 284 284 283 283 284 285 285 285 285 285 285 285 285 285 285 286 286 286 286 286 286 287 288 287 287 288 288 284 275 268 266 266 266 266 265 264 264 265 265 265 266 267 267 267 268 269 268 268 269 270 271 272 273 274 275 275 275 275 276 278 279 279 279
282 282 282 282 282 282 282 282 282 282 282 283 283 282 282 282 282 282 282 282 283 283 283 283 284 284 283 283 283 284 285 285 285 284 284 285 286 286 285 286 285 285 285 285 286 288 288 287 288 288 282 273 267 265 265 265 265 264 264 263 263 263 264 264 264 265 266 266 266 267 267 266 267 268 269 269 270 271 272 272 272 272 273 274 275 274 275
282 282 282 282 283 282 282 282 282 282 281 282 282 281 281 280 281 281 282 282 283 282 281 281 281 282 282 282 283 283 284 284 283 283 283 285 286 285 285 285 284 284 283 285 288 289 287 286 287 284 273 264 263 264 264 263 263 263 263 262 262 262 262 263 263 264 264 265 265 265 266 266 266 266 267 268 268 268 269 269 269 269 270 271 272 271 272
281 281 281 281 281 281 280 280 281 282 281 281 281 280 280 280 281 282 282 281 280 279 279 279 279 280 281 282 282 283 284 285 284 284 284 284 285 285 283 282 283 283 284 285 287 287 286 286 286 278 267 260 261 262 261 261 261 261 261 261 261 261 261 262 262 263 263 263 264 264 264 265 265 266 267 267 267 266 267 267 266 266 267 268 269 269 269
281 281 281 281 280 280 279 279 281 281 280 280 281 281 281 281 281 281 280 280 279 277 277 276 276 278 280 280 280 281 283 284 284 284 284 283 283 283 282 283 284 284 284 285 285 285 285 284 278 268 262 260 261 260 260 260 260 259 260 260 260 260 260 260 261 262 262 262 262 263 263 264 264 265 266 266 266 265 265 265 264 265 266 266 266 267 267
280 280 280 280 281 280 279 279 279 279 279 280 281 281 280 281 281 280 278 276 276 275 274 274 273 275 277 278 279 281 283 284 283 284 283 282 281 281 282 285 285 284 284 284 283 284 286 282 271 261 260 261 260 259 259 259 258 258 259 259 259 259 259 259 260 260 261 261 261 262 263 263 263 264 265 265 265 264 264 263 263 264 264 264 265 265 266
280 279 278 279 280 279 279 279 279 279 280 280 280 280 281 280 279 277 274 272 272 273 272 271 272 274 276 278 279 281 282 283 283 283 282 282 282 283 284 284 284 283 284 284 282 284 286 279 266 260 260 260 259 258 259 259 258 258 258 258 258 258 258 258 259 259 260 260 260 261 262 262 263 263 264 264 264 263 263 262 262 262 263 263 263 264 264
280 279 279 279 279 278 279 279 279 279 278 278 277 278 277 276 274 272 269 268 269 269 269 270 271 273 275 277 279 280 281 282 282 282 282 282 283 283 283 283 282 281 282 283 283 284 280 270 261 259 260 259 258 258 258 257 257 257 257 257 257 258 257 258 258 259 259 259 259 260 261 261 262 262 263 263 263 262 261 261 261 261 262 262 263 263 263
279 278 279 278 278 278 279 279 278 277 276 275 275 274 273 273 275 272 267 264 266 268 269 271 273 275 275 276 277 279 280 281 281 282 282 283 282 282 282 281 281 281 282 283 281 277 269 262 259 259 259 258 257 257 257 256 256 257 256 256 257 257 257 258 258 258 258 259 259 259 260 261 261 262 262 262 261 261 261 260 260 260 261 261 262 262 262
278 279 279 278 279 279 278 277 278 278 275 273 273 273 273 274 274 270 265 263 265 266 266 268 272 274 276 277 277 278 280 281 280 280 281 281 281 281 281 281 281 282 281 277 271 265 261 259 259 258 257 257 257 256 255 256 256 256 256 256 256 256 257 257 257 257 258 258 259 259 260 260 260 261 260 260 260 261 260 259 259 259 260 260 261 261 261
278 278 278 278 278 278 276 276 278 278 276 274 274 273 273 273 272 267 263 263 264 264 265 268 271 272 274 276 277 278 280 281 280 280 280 280 280 280 280 280 282 283 278 269 263 260 259 258 258 257 257 257 256 255 255 255 255 255 255 256 255 256 257 257 257 257 258 258 259 259 259 259 260 260 259 259 259 259 259 259 259 258 259 259 259 259 260
277 278 278 278 278 278 277 277 278 278 277 277 276 273 271 271 270 265 261 261 265 268 271 273 273 273 274 276 277 277 279 280 279 280 280 279 279 280 282 282 281 278 270 263 259 259 258 257 257 257 256 256 255 255 255 255 255 255 255 255 255 255 256 256 256 257 257 258 258 258 258 258 259 260 259 258 258 258 258 258 258 258 258 259 258 258 259
275 276 277 276 275 275 275 277 277 276 274 274 272 269 268 268 266 262 260 263 268 272 272 272 273 275 277 277 276 276 277 279 279 279 280 278 276 277 278 276 271 266 261 258 258 258 257 257 257 257 256 255 255 254 254 254 254 254 254 254 254 255 255 255 256 256 257 257 258 258 257 258 258 259 258 258 257 256 257 257 257 257 257 258 258 258 258
Wind_Speed
30 31 30 29 29 28 27 27 27 26 22 20 17 10 3 3 8 11 14 18 15 5 4 8 8 9 9 10 11 10 10 9 8 8 10 11 9 7 6 8 11 11 9 8 10 10 7 11 13 9 10 14 11 9 11 12 14 12 7 8 7 3 2 2 0 2 2 3 2 1 1 2 2 4 4 5 7 5 3 3 3 3 4 3 2 5 6
31 30 29 30 29 28 26 26 27 25 22 20 14 5 3 3 5 9 14 16 10 4 4 8 8 8 10 13 14 12 10 11 11 10 10 10 9 10 10 8 9 9 6 7 10 13 10 10 14 13 9 9 8 12 16 16 14 10 7 8 9 7 6 4 2 1 2 2 2 2 3 5 4 5 7 9 10 5 1 0 3 2 7 9 5 8 6
32 31 29 29 29 28 27 26 26 25 24 22 13 3 2 4 3 4 8 10 9 5 5 7 8 10 12 14 15 14 11 9 11 12 12 11 11 12 12 11 10 9 7 7 9 15 14 10 12 13 9 4 2 11 18 18 15 12 9 9 10 8 7 8 7 8 9 7 6 6 6 5 3 6 11 13 12 11 6 1 2 7 7 11 10 11 6
32 31 30 29 30 29 28 27 27 25 24 22 15 6 2 3 3 2 3 3 5 5 6 7 7 9 10 11 12 14 13 9 10 13 12 11 11 11 10 11 12 11 11 10 9 12 15 11 7 8 9 5 1 8 17 18 17 16 11 10 8 4 5 11 14 15 15 11 5 6 11 10 9 12 16 17 16 16 9 3 6 8 3 7 14 13 10
32 31 31 30 30 29 29 28 27 26 25 23 17 7 3 3 3 3 2 2 3 4 5 6 7 9 10 7 7 13 14 11 9 10 10 10 11 11 10 12 13 13 14 13 10 11 14 12 9 8 9 7 1 3 10 14 18 16 11 9 7 3 5 14 18 20 15 6 4 10 16 16 18 18 18 19 18 17 14 13 12 6 4 12 13 10 16
33 32 31 30 29 28 28 28 26 25 25 23 14 4 3 4 3 3 2 2 4 5 5 6 7 10 10 6 6 13 14 11 10 7 6 8 10 9 9 14 17 17 16 14 11 12 12 13 13 9 7 6 2 1 4 9 11 11 8 7 6 3 7 13 15 19 17 5 4 10 14 13 15 17 19 20 20 20 21 24 20 11 9 18 9 12 22
33 32 31 30 30 29 28 27 26 25 25 23 13 4 3 4 3 2 1 2 5 8 8 7 8 11 11 7 8 12 12 12 10 5 5 8 8 9 11 16 18 20 20 16 14 14 13 13 13 11 9 7 5 4 3 5 5 7 8 6 4 3 7 10 9 14 18 11 6 9 11 9 11 15 19 20 22 25 26 27 24 18 20 22 9 11 24
33 31 29 29 30 29 28 27 26 26 26 21 11 5 5 3 3 3 2 3 5 6 8 7 7 9 10 8 9 10 11 13 12 7 6 8 8 8 11 12 13 18 21 20 19 18 17 17 16 14 12 8 7 6 5 5 6 7 8 5 3 5 6 6 5 6 14 14 10 9 10 10 10 11 14 18 21 24 26 25 21 17 23 24 14 17 24
32 31 30 30 29 28 28 28 26 25 24 17 8 7 10 10 9 7 4 5 7 6 6 6 6 7 8 7 9 10 11 12 12 10 8 9 11 12 11 11 10 11 16 20 22 20 20 21 19 18 16 13 12 9 6 9 10 9 8 6 5 7 4 1 4 6 12 11 10 10 8 6 7 9 15 19 19 20 21 19 16 17 21 19 12 17 22
31 31 31 31 29 28 28 28 27 27 24 16 7 6 10 11 11 9 5 6 9 8 6 7 6 6 7 8 9 10 11 10 10 10 7 8 10 9 8 10 10 10 14 16 16 14 15 19 18 15 14 15 14 10 9 14 15 12 10 7 6 8 6 3 5 8 11 9 9 9 6 3 7 14 18 20 20 20 17 14 16 19 18 13 12 19 20
31 31 31 31 30 30 29 28 28 27 26 20 12 8 11 10 6 5 5 6 8 7 7 8 8 7 9 11 10 12 13 12 10 10 7 6 7 7 10 11 9 8 12 13 11 11 15 17 13 6 6 11 13 9 9 13 13 13 12 8 5 9 10 7 5 6 10 7 7 7 5 8 11 11 13 19 22 21 17 16 18 19 17 16 18 20 17
31 32 32 30 29 30 30 30 29 27 27 26 19 16 20 19 10 4 5 6 7 8 8 9 10 10 12 13 11 11 14 13 12 11 10 11 11 9 8 8 8 10 11 10 10 12 14 13 9 4 3 7 10 10 13 14 11 10 13 11 10 11 11 7 5 5 5 3 6 5 8 11 11 5 6 15 20 19 19 22 23 21 21 23 24 25 21
31 32 33 30 29 30 30 31 31 29 26 25 22 22 26 22 11 5 6 7 7 8 9 10 12 12 12 13 12 13 14 14 13 12 12 14 15 13 9 8 10 11 10 10 12 12 11 11 10 8 4 2 3 6 13 16 13 12 12 12 12 12 10 7 5 5 3 2 6 9 6 4 6 5 3 8 11 14 17 21 22 21 21 22 25 28 25
32 32 32 31 29 30 30 30 32 31 27 24 24 26 26 21 13 6 5 6 7 8 10 9 10 12 14 14 13 13 13 13 13 12 11 12 15 15 10 8 9 9 7 9 10 8 6 6 6 5 4 3 2 4 10 13 14 16 17 14 14 13 11 8 7 7 6 6 9 8 5 7 9 9 6 6 7 11 13 13 17 19 21 21 23 26 25
32 33 33 32 31 30 30 30 32 32 28 25 25 25 25 25 21 13 5 5 7 9 9 9 9 12 14 13 12 10 9 9 9 9 8 8 11 13 10 8 8 7 6 6 6 5 5 5 5 4 5 6 6 5 6 7 8 15 18 16 14 14 12 10 8 8 7 8 9 6 5 10 14 12 7 7 8 11 13 10 14 14 18 21 23 26 25
32 33 33 33 32 31 31 31 32 31 28 26 25 24 25 27 27 21 10 6 7 7 8 11 12 13 11 8 9 9 8 7 7 6 6 7 10 12 8 6 6 5 5 5 4 4 5 6 7 7 6 8 8 6 6 6 4 8 15 17 17 16 13 11 10 8 7 8 9 8 8 10 12 9 8 11 11 11 11 4 11 10 17 21 24 26 23
32 32 33 33 31 31 31 31 31 30 27 26 24 22 23 26 27 23 12 7 8 8 7 8 9 8 8 7 7 8 6 6 6 5 5 5 7 8 6 3 4 6 7 6 4 5 6 7 8 10 8 7 8 6 7 8 6 6 10 14 15 13 10 8 9 9 10 10 9 7 6 7 7 7 8 11 12 12 11 7 10 8 14 16 16 19 19
33 32 33 34 32 31 31 31 31 30 27 26 25 23 25 27 26 23 14 7 8 7 7 11 12 9 8 7 7 7 5 4 5 4 4 4 4 6 6 3 3 5 6 6 4 5 7 8 9 10 8 5 6 6 7 9 8 9 12 12 11 11 9 9 10 11 13 13 10 6 5 6 7 7 6 9 11 10 11 12 7 5 8 7 9 13 16
34 33 33 34 33 32 31 30 31 30 28 28 26 22 23 24 24 23 14 4 5 8 8 11 14 13 11 9 7 5 4 5 5 4 3 4 3 3 5 3 2 2 3 3 4 4 6 8 8 7 8 6 5 5 7 10 9 9 13 13 11 9 8 8 10 11 11 11 10 8 6 5 8 8 7 10 10 9 11 8 3 5 7 6 8 12 11
34 34 33 33 33 33 31 30 31 31 29 28 25 20 22 25 24 24 18 7 4 7 8 11 14 14 12 10 10 9 7 7 6 5 5 6 2 1 4 4 3 3 3 3 5 4 4 7 7 5 6 6 4 4 8 11 10 9 13 14 12 11 9 8 9 9 9 9 10 8 8 8 12 11 6 9 12 8 5 3 1 3 7 7 7 8 8
35 34 33 33 33 33 32 30 31 32 30 29 25 19 22 27 24 25 28 20 7 2 7 14 16 15 14 15 17 16 13 10 9 7 6 7 4 2 4 4 1 1 2 3 3 2 2 4 4 3 3 3 3 4 6 10 10 9 13 12 11 12 11 7 7 8 8 9 9 8 6 7 15 15 10 14 12 4 2 5 5 1 4 6 6 7 7
36 35 34 35 34 33 32 30 31 33 31 31 27 17 18 24 24 24 29 26 13 7 13 17 17 20 25 27 27 26 23 22 21 16 8 4 4 5 5 5 4 3 2 1 1 2 2 2 3 4 5 4 4 5 5 7 8 7 10 9 9 12 13 10 9 11 10 9 8 6 3 5 13 16 16 16 14 8 3 4 4 2 2 4 4 6 6
36 35 35 35 34 34 33 31 31 32 31 31 28 19 17 23 25 23 22 16 11 11 16 15 14 15 18 23 30 36 35 32 30 24 15 8 5 5 5 6 6 4 2 2 3 4 4 3 3 5 5 4 4 7 8 7 5 4 6 6 6 11 15 12 8 8 9 8 4 4 4 8 13 17 14 9 11 12 7 3 2 4 5 5 4 5 5
36 36 35 35 33 33 33 31 30 32 32 31 28 23 22 25 25 20 13 6 3 5 7 8 7 7 12 22 30 32 31 30 31 30 26 17 9 5 5 6 6 5 4 5 4 3 4 4 3 4 6 4 3 4 6 6 6 5 4 5 3 6 12 11 7 7 8 8 7 9 11 11 12 15 13 6 6 9 9 8 7 6 6 6 5 4 5
35 36 35 35 34 33 32 31 30 33 33 30 27 24 22 24 25 20 12 6 3 3 4 5 8 16 25 28 23 21 26 33 34 33 30 24 16 10 10 11 11 8 6 4 2 2 4 4 3 5 6 3 1 3 4 3 5 7 3 2 3 2 6 9 10 11 10 9 11 14 14 10 8 11 11 8 8 8 9 10 10 7 6 6 5 4 5
36 36 34 33 33 32 32 30 30 31 32 30 28 25 22 23 25 22 15 8 3 3 4 3 7 15 20 17 15 21 28 31 32 31 29 28 27 22 16 12 11 9 4 2 3 4 6 6 4 5 5 2 2 2 4 3 4 6 6 4 5 6 4 5 9 11 11 9 8 8 7 8 11 13 11 10 10 10 10 10 8 8 8 6 5 4 5
36 36 34 33 31 31 32 31 30 31 31 30 28 25 23 24 26 24 20 12 4 2 4 4 5 6 7 9 18 27 26 24 27 29 26 27 29 25 17 10 9 8 5 4 6 6 6 6 6 7 6 4 2 3 5 6 5 6 8 8 5 6 7 5 5 9 10 10 10 9 8 10 14 15 17 16 12 9 9 9 7 8 10 9 7 7 6
36 34 33 32 31 31 32 32 30 30 30 30 28 25 25 27 30 30 29 25 15 5 2 4 3 2 0 5 17 24 23 23 25 24 21 23 25 20 14 11 10 9 7 7 6 6 6 7 6 6 5 4 4 5 6 7 6 6 8 9 6 6 8 8 8 9 8 11 15 15 11 10 12 13 15 16 11 9 9 10 9 10 10 9 8 8 8
35 33 32 34 35 34 32 31 29 28 28 28 25 20 20 25 27 27 30 31 23 10 3 4 3 2 2 3 7 12 16 20 22 20 16 16 16 13 11 11 10 9 8 7 6 6 7 7 6 5 4 3 3 5 6 6 6 7 9 9 7 7 8 9 10 11 10 10 14 14 11 12 15 15 12 9 8 10 11 12 12 12 10 9 9 10 10
34 32 33 36 37 34 31 29 27 26 25 24 17 8 8 12 15 18 25 31 27 13 3 4 4 2 2 3 3 5 9 13 16 16 13 10 10 10 10 9 9 8 7 6 7 7 6 5 5 6 6 6 4 4 5 6 7 8 10 10 7 7 8 9 9 9 10 11 11 9 8 12 15 12 7 5 7 10 12 13 14 14 14 13 11 10 11
34 33 36 38 36 31 28 27 26 26 24 17 5 1 0 3 5 9 14 26 28 13 1 2 3 2 2 3 5 7 9 10 9 8 9 9 9 9 9 8 7 7 7 7 8 8 6 5 5 5 6 9 8 5 5 7 7 9 11 10 9 9 10 10 9 9 10 12 12 9 6 8 10 9 5 5 8 10 10 11 13 15 16 15 12 12 12
32 33 36 37 34 30 28 27 25 24 23 16 8 6 10 14 17 18 15 20 22 9 2 1 2 1 1 4 4 4 7 8 6 5 5 6 6 6 7 7 6 6 8 7 6 6 5 6 7 6 7 8 7 4 7 8 8 11 13 11 8 8 9 9 9 8 9 10 10 9 7 7 9 10 11 10 9 10 11 12 12 12 12 11 10 10 10
32 34 34 33 33 30 28 27 24 22 22 20 17 18 21 23 24 23 18 16 12 4 1 2 2 2 3 3 4 2 4 5 4 4 4 4 5 4 5 5 4 6 8 7 4 4 3 4 6 7 6 6 4 4 8 9 9 12 16 13 8 7 8 8 8 8 7 6 6 7 8 8 8 10 10 7 6 9 11 11 9 9 8 8 8 9 9
33 34 33 31 31 29 27 26 23 19 16 12 11 14 17 17 17 17 13 11 5 1 1 2 2 2 3 2 4 3 4 4 3 4 4 3 3 4 3 3 3 4 5 5 4 3 4 4 4 5 5 5 4 5 8 9 10 14 15 9 4 5 6 7 6 5 5 5 6 7 7 7 8 10 9 5 5 8 9 8 7 8 8 8 9 10 8
32 33 32 30 29 27 25 20 14 10 6 3 6 12 17 18 19 19 13 9 6 2 1 2 2 2 2 1 3 4 2 2 3 4 3 2 2 3 3 2 2 3 4 4 3 4 4 4 4 5 6 6 6 6 6 8 10 11 7 4 6 7 5 5 5 6 7 7 8 9 9 8 8 9 8 6 7 7 7 6 8 10 10 9 9 9 8
31 30 28 28 25 21 16 10 4 1 1 4 11 19 23 23 22 20 13 9 7 3 2 2 2 3 4 3 3 3 2 2 1 2 2 1 1 0 2 2 3 3 1 2 2 4 4 4 3 4 6 7 7 5 2 2 4 4 4 5 6 6 5 5 8 11 13 12 9 7 7 6 6 7 7 6 6 5 5 5 4 6 9 9 8 6 7
30 28 25 21 16 11 7 3 1 1 6 12 19 23 22 17 14 11 6 4 4 3 2 2 2 3 3 3 2 1 2 2 1 1 2 2 2 1 1 2 2 2 1 1 3 4 4 3 3 4 6 6 3 1 2 3 2 3 4 4 5 5 5 7 9 10 13 13 8 6 6 6 5 6 6 7 7 6 4 4 3 2 4 3 2 1 3
28 24 18 10 5 3 2 3 3 10 18 20 17 13 9 4 2 2 1 1 1 2 1 2 3 2 2 2 2 2 2 2 1 1 2 3 2 1 1 1 2 2 1 2 3 2 1 1 3 4 5 3 1 2 2 3 3 3 4 4 5 5 5 7 8 9 9 8 7 8 9 8 8 8 8 9 9 8 6 5 6 5 4 3 3 2 2
22 15 9 3 1 2 4 7 13 20 22 15 6 2 1 1 1 1 2 1 0 1 0 1 2 2 3 3 4 2 2 2 1 1 2 2 1 1 1 1 1 1 1 3 3 0 0 2 2 3 4 2 1 2 2 3 4 4 4 4 4 5 5 5 6 7 6 5 5 7 7 7 8 9 8 8 8 8 7 7 7 7 7 6 5 5 5
13 6 2 1 2 6 11 17 20 18 12 5 0 1 1 1 0 1 0 1 1 1 1 1 1 1 2 3 4 3 1 2 2 2 2 2 2 1 1 1 1 1 2 3 2 1 1 2 2 2 2 1 1 3 4 4 4 4 5 5 5 6 6 5 5 6 5 4 5 6 6 7 7 7 7 8 8 8 8 8 8 8 8 8 9 8 7
6 2 2 4 8 14 19 20 16 7 1 0 1 1 0 1 2 1 1 1 1 3 1 1 2 2 2 1 1 3 3 1 1 2 2 2 2 1 2 2 1 1 2 3 2 2 2 2 2 2 1 2 4 5 5 5 5 5 6 6 6 7 7 7 6 6 6 5 5 4 5 7 7 6 7 8 7 7 7 8 8 9 10 10 9 9 8
12 12 13 15 15 15 13 10 5 1 1 0 0 0 1 1 1 1 0 1 2 1 1 2 2 2 3 2 1 2 2 1 1 2 1 2 2 1 2 2 1 1 2 4 0 3 1 1 3 3 1 3 5 5 5 6 6 6 7 8 8 8 8 7 7 7 7 7 6 5 5 6 6 6 6 7 7 7 8 9 10 10 10 9 9 8 9
18 17 15 11 7 4 2 2 1 0 0 0 1 1 2 2 1 1 2 2 1 1 1 2 2 2 3 2 1 1 2 1 0 1 1 1 1 1 1 0 1 1 2 1 2 2 1 3 4 4 2 2 4 5 5 5 6 7 7 7 8 8 8 8 7 7 7 7 6 6 6 6 6 7 6 7 8 9 9 10 10 10 10 9 9 9 11
13 9 5 2 1 1 1 1 1 0 0 1 1 2 1 2 1 1 1 2 2 1 2 2 2 2 2 2 1 1 2 1 0 1 0 1 0 1 1 2 3 2 1 1 1 1 2 3 3 4 3 1 3 4 4 5 6 7 7 7 8 8 8 8 7 7 7 7 7 7 7 6 7 7 7 7 9 9 8 8 10 11 11 10 8 9 12
4 2 2 2 2 1 0 0 1 0 1 2 2 3 3 2 2 2 1 1 2 1 1 2 1 1 3 2 1 2 2 1 1 0 1 0 1 0 2 3 2 0 1 1 1 1 2 3 4 3 1 1 3 4 4 4 5 6 6 7 8 8 8 8 7 7 6 6 7 7 6 6 7 7 6 7 9 10 9 9 9 10 9 8 7 9 13
1 0 2 1 1 2 1 1 2 1 2 2 2 3 3 2 1 1 1 2 2 2 1 2 2 2 3 2 1 2 1 1 0 1 0 2 1 2 2 1 0 1 0 1 2 3 4 4 3 2 1 1 3 4 4 4 5 6 6 6 7 8 8 8 7 6 6 6 6 6 6 5 6 6 5 6 9 10 11 11 11 10 9 7 7 9 11
0 1 1 2 1 1 1 2 3 3 2 2 2 3 3 2 2 2 2 1 2 2 2 3 2 2 3 2 1 2 2 0 0 1 1 2 0 2 1 1 0 2 2 3 4 5 4 2 1 2 2 2 3 4 4 5 5 6 6 6 7 8 8 8 7 6 6 7 7 6 6 6 6 6 6 6 8 10 11 12 13 12 10 9 8 9 10
1 0 1 2 2 2 3 3 2 1 1 1 2 2 2 2 3 2 1 2 2 2 2 2 2 1 2 1 1 2 2 0 1 2 1 1 1 1 1 0 2 2 2 3 4 3 2 1 1 1 2 2 3 3 4 4 5 6 6 7 7 8 8 8 8 7 7 7 7 6 6 6 6 7 7 7 7 9 11 13 13 12 11 11 11 11 10
2 1 2 1 1 2 3 2 1 1 1 1 2 2 2 2 3 1 1 2 1 1 2 2 0 0 1 1 1 2 2 1 1 1 0 1 1 2 1 2 3 3 2 3 3 2 2 1 2 2 2 2 3 3 3 3 4 5 6 7 7 7 7 7 7 7 8 7 6 6 7 7 6 6 8 8 7 8 11 13 13 13 13 13 13 12 11
2 2 2 2 2 3 2 1 1 2 4 3 1 0 1 3 2 0 1 1 1 1 1 2 2 1 1 1 1 1 2 2 2 1 1 2 2 2 1 2 4 4 3 2 2 2 2 2 2 2 2 3 3 3 3 3 4 5 5 6 7 7 6 7 7 7 7 7 8 8 9 7 6 6 8 8 8 7 9 12 14 13 13 14 14 13 12
1 1 2 2 3 3 2 2 2 3 3 2 3 3 1 3 2 2 2 0 1 2 1 1 2 1 1 2 2 2 2 1 1 1 2 2 2 2 2 4 5 4 3 1 1 3 3 2 2 3 2 3 3 3 4 4 4 4 5 6 7 7 7 8 7 6 6 7 9 10 9 9 9 9 9 9 9 7 6 9 14 15 13 12 14 14 13
1 1 1 1 1 2 2 1 2 2 1 1 2 2 2 3 3 3 1 2 3 2 0 1 1 1 2 2 1 1 1 1 0 1 2 3 1 2 3 4 3 1 3 3 3 3 4 3 2 3 3 3 3 4 4 4 4 5 6 7 8 8 8 8 7 7 7 8 10 11 12 11 11 11 10 9 10 9 6 6 11 15 14 12 13 14 13
Wind_Direction
312 311 311 307 306 305 305 305 303 304 307 306 303 291 254 235 260 267 268 274 286 298 262 268 258 248 266 274 263 261 265 254 231 207 206 215 220 228 225 206 210 214 195 180 175 173 190 197 196 209 219 222 222 185 165 158 156 160 179 196 187 135 131 165 218 335 325 301 312 53 155 171 201 228 179 170 221 210 160 198 170 166 221 168 132 261 261
312 311 310 307 306 305 303 301 299 302 302 299 295 274 233 247 257 275 275 260 241 204 249 262 260 265 274 275 269 260 256 254 246 231 214 205 208 223 228 212 213 216 185 163 179 184 193 202 200 205 216 227 212 171 165 164 167 179 189 176 171 180 186 165 152 268 322 331 296 258 203 186 207 221 192 200 218 205 190 180 97 224 213 163 173 249 243
312 311 309 307 305 303 301 298 298 298 298 297 289 241 239 272 240 253 264 237 208 205 240 243 257 268 266 272 273 269 267 257 247 245 235 218 211 219 224 217 215 212 189 178 187 191 201 209 203 206 215 233 193 173 175 174 181 198 197 174 172 179 180 174 183 206 213 211 218 218 190 170 192 211 202 207 205 196 202 147 158 234 206 164 200 241 242
312 310 308 306 303 301 299 297 297 296 296 296 286 254 232 281 251 252 280 236 205 224 236 236 251 258 259 270 272 267 274 278 261 251 248 240 228 230 230 217 216 218 208 204 201 202 213 215 197 200 207 212 228 188 184 184 193 199 183 169 176 172 187 197 202 214 216 210 202 141 126 149 200 204 198 202 201 199 195 148 205 218 176 195 222 232 250
310 308 306 304 303 302 299 296 296 294 291 291 287 263 222 252 249 235 263 276 245 242 236 230 236 246 249 255 266 263 264 276 275 252 241 234 226 234 237 217 215 216 211 217 216 204 214 219 208 200 196 196 243 203 189 195 200 194 178 175 176 158 213 212 216 228 228 206 169 151 145 173 202 197 193 198 197 194 196 214 219 159 129 246 227 204 242
311 308 306 304 302 301 299 296 294 292 289 288 289 266 212 242 241 209 215 258 260 250 240 236 245 260 262 254 269 275 274 278 277 262 260 249 224 224 232 221 220 215 207 217 223 210 214 218 211 208 196 182 161 107 195 214 206 188 181 190 177 173 222 218 220 236 239 211 152 179 174 183 196 192 192 193 191 193 202 220 221 173 202 244 203 171 231
312 310 308 306 304 301 298 296 292 289 287 285 280 248 226 247 249 241 197 206 240 249 254 262 267 269 273 271 268 276 281 280 278 283 301 281 246 232 233 224 222 220 212 213 220 215 215 216 212 207 196 183 169 158 192 221 206 184 187 196 177 178 228 228 219 237 244 232 195 194 191 186 193 196 194 188 191 199 207 219 221 207 226 242 218 216 245
313 311 308 306 306 303 299 297 293 289 288 284 269 229 230 243 248 264 265 234 241 253 257 260 266 264 264 265 263 269 273 274 280 279 268 283 293 276 262 255 245 233 224 221 222 220 217 220 216 201 192 192 184 181 188 174 166 182 193 199 195 194 224 231 199 233 250 237 214 204 199 197 201 199 198 197 198 205 212 219 218 213 233 242 241 256 261
313 311 309 306 305 302 299 298 294 290 286 280 262 232 235 241 243 242 256 262 248 243 244 243 251 257 253 255 261 263 262 265 278 282 261 263 279 276 279 303 310 280 256 241 234 231 228 228 221 203 197 199 194 191 185 163 160 179 192 186 186 195 215 209 155 220 247 229 203 201 200 207 223 215 208 205 204 210 217 219 212 209 226 237 238 251 257
314 313 310 308 306 302 300 297 294 291 285 270 253 248 242 240 242 233 229 254 249 244 249 242 240 249 247 250 258 260 265 271 280 289 273 236 242 265 302 326 335 322 298 274 261 267 268 259 246 222 206 203 199 191 179 175 171 172 181 182 178 186 201 200 175 215 243 225 182 175 166 180 237 232 217 208 210 216 218 220 219 214 217 221 222 236 247
315 314 310 309 308 304 301 297 293 292 287 270 249 249 249 242 240 231 227 247 247 242 248 244 243 253 251 249 254 258 264 267 261 261 262 245 252 300 323 322 319 301 288 283 287 300 296 285 276 257 214 208 204 182 165 179 178 167 168 172 175 186 200 207 188 213 240 223 159 151 179 212 233 234 209 206 215 216 215 224 224 215 216 225 233 243 248
315 313 309 309 310 306 303 301 296 292 288 276 258 249 253 249 239 230 236 248 249 240 243 244 238 244 249 247 249 253 255 258 257 254 264 277 282 287 291 292 287 276 277 288 298 305 305 298 287 283 251 214 200 175 166 175 179 173 170 166 171 189 201 205 199 218 236 185 145 183 220 221 232 252 194 204 215 211 213 229 228 216 219 229 240 250 249
314 313 310 309 310 308 306 303 299 292 286 277 260 251 254 248 233 224 234 240 249 241 241 248 242 241 250 251 250 254 255 258 265 266 270 280 281 278 273 262 260 267 284 301 302 304 309 296 269 249 234 178 162 178 181 180 178 179 178 175 176 185 197 202 200 208 209 149 185 215 243 239 238 263 232 206 208 201 211 234 236 224 220 227 237 245 246
315 312 311 309 309 308 307 305 300 293 287 279 266 259 256 242 221 221 238 233 245 242 236 247 248 241 245 246 247 254 259 262 267 265 259 266 271 269 262 247 249 262 284 297 296 292 288 279 258 227 190 168 158 186 192 191 188 184 185 188 188 186 191 201 204 205 206 213 218 231 291 295 258 245 222 185 183 185 195 231 242 224 217 224 234 242 245
315 312 311 310 309 309 309 307 302 295 290 285 276 268 260 246 231 226 230 232 244 246 235 236 241 239 240 240 240 249 261 264 265 260 245 244 261 265 255 241 249 263 271 274 272 263 261 258 240 212 194 194 191 180 178 183 193 193 191 192 193 193 194 194 200 206 201 215 232 233 242 251 247 238 202 164 180 180 174 219 249 219 204 218 230 237 240
315 314 312 311 311 310 309 306 302 297 291 289 283 272 266 258 241 227 225 236 238 242 234 227 231 239 245 241 231 233 247 252 252 263 260 243 252 262 254 228 230 239 249 258 252 240 249 249 237 232 213 189 186 184 166 155 170 196 195 194 197 201 202 198 202 210 197 205 227 222 217 241 245 227 178 167 185 167 141 225 265 206 187 207 221 229 234
316 315 312 311 310 309 309 307 303 299 295 292 289 278 271 265 246 228 226 238 236 241 243 226 222 234 240 239 233 227 234 249 247 253 261 246 251 269 271 232 215 215 219 238 254 243 241 246 245 244 229 185 179 189 171 156 155 170 183 195 200 200 205 205 207 213 205 208 223 221 226 245 230 201 182 177 171 142 139 224 259 204 189 201 207 221 232
314 314 313 312 310 309 311 309 302 299 295 291 288 276 267 268 256 237 229 238 241 244 237 223 221 228 227 224 230 227 218 232 239 240 257 257 252 266 268 252 221 216 211 222 249 248 246 251 246 242 237 194 171 193 184 167 172 172 170 182 194 197 203 206 208 214 211 212 222 227 233 233 205 191 178 153 142 148 185 217 230 190 200 200 184 206 227
314 313 313 313 311 309 310 308 303 299 294 290 289 276 264 268 260 240 227 226 242 242 233 219 217 224 228 224 226 230 218 223 230 228 249 252 231 250 269 256 191 218 227 247 273 269 256 259 252 240 239 216 179 198 201 187 185 171 165 176 187 188 198 206 206 211 213 214 221 229 236 214 178 169 157 148 160 200 212 206 169 158 180 190 194 206 218
314 313 312 312 312 309 307 306 304 300 294 290 290 280 272 275 266 245 233 224 232 248 245 232 223 221 221 218 218 222 222 224 226 220 231 242 233 3 298 267 209 208 220 232 255 254 248 263 263 247 241 228 200 208 213 209 207 175 164 178 186 179 187 205 203 202 210 216 213 218 233 203 156 140 152 188 197 206 196 189 197 138 150 169 202 216 214
313 312 312 311 310 309 307 306 304 302 297 291 289 283 274 277 273 255 242 233 221 255 242 233 228 221 217 217 215 217 217 216 216 212 222 238 219 178 253 257 190 160 220 227 242 240 235 270 275 280 298 285 249 230 210 214 221 191 168 175 185 183 186 196 198 195 201 212 209 207 228 195 157 155 193 212 204 183 154 209 236 234 146 166 195 224 218
312 311 312 311 310 308 306 307 306 304 299 292 290 284 270 271 276 269 252 236 221 240 248 239 230 224 227 229 227 224 225 226 225 219 213 230 223 203 231 253 232 212 218 217 271 286 301 317 307 306 312 303 288 289 259 223 219 194 175 182 189 186 185 189 199 201 202 212 211 195 194 181 175 191 213 211 202 204 200 194 217 256 212 171 182 222 223
313 312 311 310 309 308 306 306 306 304 300 294 290 285 274 274 278 275 260 238 221 243 250 244 235 228 230 233 232 231 232 232 232 227 217 218 237 225 224 243 245 239 219 184 219 264 278 282 285 285 282 270 282 310 300 267 243 205 196 211 207 186 187 195 201 196 206 220 202 152 185 205 203 214 223 207 201 213 210 183 204 222 206 189 186 194 194
313 313 312 310 308 306 305 307 308 304 299 293 289 285 280 279 277 269 253 225 212 251 248 235 225 215 220 227 230 230 230 230 233 233 226 220 227 239 226 223 229 241 238 214 209 245 265 264 266 265 269 268 258 285 293 287 292 290 238 233 252 198 192 202 201 182 197 210 188 186 208 211 208 220 229 229 222 220 211 210 218 207 188 193 198 176 158
313 312 312 311 308 306 304 306 309 307 300 294 293 292 284 278 273 262 243 218 212 223 229 235 229 226 230 234 232 228 228 228 229 231 226 218 215 225 232 228 224 229 237 223 193 221 250 255 254 251 260 268 200 246 260 259 293 312 305 244 293 271 197 199 201 198 204 206 199 206 215 212 210 223 229 229 229 225 219 222 223 219 207 192 179 160 142
313 312 310 309 307 305 304 305 307 307 302 298 298 293 283 279 276 261 239 227 239 227 213 239 250 235 231 233 234 234 234 230 226 226 225 220 219 223 231 238 239 239 237 210 210 232 244 248 246 247 254 238 152 241 262 244 272 307 300 279 301 311 283 222 201 206 216 216 201 195 203 218 228 231 230 227 219 214 222 226 221 229 238 221 194 194 181
314 313 311 309 307 305 306 306 306 306 305 302 299 295 286 281 277 262 239 220 219 258 227 227 257 244 209 212 234 237 235 226 220 221 224 224 224 225 228 234 243 244 240 234 235 238 241 243 243 243 249 255 251 264 272 265 268 284 279 270 279 294 292 279 224 213 217 213 204 193 192 217 228 225 225 228 219 208 226 232 217 223 234 225 216 220 217
315 314 313 312 310 307 307 306 304 306 308 305 302 301 296 286 278 265 246 226 212 219 247 221 241 290 275 234 239 235 229 221 215 213 217 220 221 222 222 223 229 236 238 237 236 235 234 237 241 240 236 241 251 253 256 258 256 254 260 260 247 242 257 260 250 244 230 212 214 214 210 222 234 229 227 227 215 205 228 238 231 231 232 225 224 228 229
316 314 313 314 312 308 306 305 303 304 308 311 312 310 303 294 283 265 244 225 212 211 241 231 227 264 276 261 242 229 223 216 209 207 213 218 216 217 217 217 219 224 228 230 232 235 237 235 236 238 227 215 234 249 246 248 250 247 249 251 238 227 239 246 254 267 266 241 231 227 216 223 235 235 229 220 199 200 221 234 240 245 244 233 228 233 236
316 314 314 316 314 309 305 303 302 304 307 313 318 317 305 301 285 258 237 222 212 205 209 226 227 258 263 248 234 220 213 204 201 206 211 211 213 219 217 214 217 219 221 231 233 230 234 234 229 231 226 214 223 260 255 246 253 256 252 252 251 249 254 254 253 264 276 277 273 262 234 231 239 242 230 189 175 190 210 225 234 241 245 242 235 233 237
317 316 317 317 315 311 307 304 304 305 305 307 311 134 211 303 303 288 249 222 211 201 130 223 232 342 328 243 225 219 210 198 193 202 206 207 216 223 218 212 215 214 215 228 236 234 234 236 231 230 222 212 214 241 254 246 255 261 254 250 251 253 257 258 249 242 252 269 288 306 292 253 250 255 247 207 186 186 199 215 223 230 237 240 236 233 236
318 318 319 319 316 311 307 305 305 304 299 289 266 250 262 265 277 294 278 226 209 196 97 173 206 5 281 249 252 234 204 190 187 191 197 204 209 216 220 216 212 218 224 229 237 240 232 228 235 240 228 211 206 229 242 236 244 258 259 257 257 256 257 259 256 248 243 250 266 287 290 265 249 246 240 223 195 185 198 213 219 224 232 236 235 239 244
319 320 320 319 317 312 307 306 306 302 296 287 275 271 273 272 277 286 275 237 214 196 143 170 162 195 223 265 300 257 171 159 185 202 206 211 198 189 211 215 201 215 227 222 223 238 228 217 232 240 229 212 206 241 247 240 243 257 263 265 269 276 278 273 265 261 259 259 267 270 265 264 268 268 263 245 201 193 205 212 211 216 226 230 230 236 238
320 321 319 317 316 313 308 307 305 299 294 288 275 276 284 288 295 296 273 232 205 60 267 191 143 197 230 335 331 248 166 135 181 204 211 230 197 161 182 210 190 194 211 207 207 232 234 225 234 242 235 225 220 236 246 245 245 254 263 274 315 336 309 282 270 276 298 328 335 315 297 296 301 302 306 297 241 219 215 204 192 200 216 225 229 230 227
321 319 317 317 316 312 308 307 307 304 300 277 272 293 302 303 304 303 278 222 178 91 267 194 152 182 219 303 299 257 190 146 191 197 201 250 242 170 172 198 202 199 198 189 193 214 217 210 216 233 240 232 225 231 239 240 244 255 273 335 13 8 337 291 296 323 333 333 322 309 309 311 298 288 288 283 264 254 242 217 196 194 204 219 227 226 219
321 319 318 317 315 311 307 306 310 355 334 285 294 305 307 302 299 298 282 234 210 214 200 175 178 183 176 199 259 258 187 166 205 188 176 233 274 220 120 144 210 225 185 139 199 214 208 194 193 223 242 238 234 241 257 273 281 303 5 25 12 8 355 321 319 320 314 307 300 300 311 316 297 283 282 281 280 284 279 266 237 213 217 225 228 219 214
320 318 317 316 315 316 313 284 201 0 321 307 307 308 305 296 291 291 279 229 222 229 142 133 208 209 168 181 246 248 191 211 216 158 180 205 216 208 109 123 205 239 34 60 227 214 193 186 197 221 239 242 233 223 52 50 18 0 23 17 1 2 351 327 324 320 310 307 319 347 353 352 355 355 348 340 340 344 343 341 342 299 249 252 275 246 228
321 318 316 318 334 354 318 258 298 325 319 312 310 309 304 303 308 281 266 156 200 230 142 149 219 224 137 159 239 232 198 218 12 83 212 225 217 212 80 124 213 227 231 249 242 208 151 206 215 216 233 246 81 75 63 60 56 41 34 19 4 1 352 340 345 348 336 331 348 1 357 355 -0 2 358 351 349 354 1 3 357 354 4 21 19 3 17
324 321 315 312 277 244 257 281 308 316 314 309 303 278 276 0 55 279 290 349 130 267 59 169 224 202 154 190 257 259 158 136 40 352 252 256 257 234 220 226 228 190 198 246 253 170 132 263 250 216 227 231 119 79 43 49 59 47 32 20 5 359 354 350 357 6 1 349 352 359 1 355 347 345 346 346 344 347 356 4 1 357 359 7 14 24 35
322 311 290 252 249 264 283 299 307 310 308 303 311 98 355 339 237 212 257 26 356 279 247 188 228 216 162 197 255 266 182 160 196 204 202 233 245 202 166 230 226 134 167 236 247 123 154 233 238 205 217 224 70 42 22 24 38 34 25 16 3 359 358 354 355 1 357 345 350 7 12 1 348 343 345 345 345 346 352 360 2 358 359 7 15 18 16
304 263 237 260 276 287 297 305 308 307 295 240 334 10 51 283 285 268 125 87 279 269 271 54 29 347 343 347 264 263 266 256 186 151 156 241 252 162 159 231 249 121 178 230 230 119 142 217 222 211 226 28 35 28 16 13 16 15 15 11 3 358 355 352 352 356 358 355 356 9 11 3 358 356 350 349 352 352 351 357 2 1 3 10 14 10 3
293 287 280 278 280 286 296 305 307 278 134 139 264 283 282 292 320 356 151 203 226 259 354 30 22 308 305 319 278 239 253 293 57 89 115 250 251 172 171 227 326 82 222 236 208 77 89 234 236 234 296 27 25 17 16 15 5 357 2 8 6 358 353 353 353 354 358 358 352 350 356 -0 2 2 358 358 3 3 3 7 8 1 359 5 9 6 1
305 297 288 283 283 287 298 309 295 275 42 127 183 253 323 337 332 267 276 290 347 56 20 355 340 313 309 315 296 251 264 274 276 108 152 231 238 133 120 180 202 199 227 277 57 76 207 236 235 236 255 7 15 12 15 12 358 350 355 2 1 354 350 352 353 355 1 2 356 350 350 351 354 359 7 16 20 18 16 14 9 -0 357 3 8 7 2
315 310 307 314 338 338 280 287 288 152 155 243 217 197 250 301 277 226 267 334 358 28 14 354 354 340 311 311 339 305 290 284 106 106 228 258 296 89 131 218 228 227 291 21 92 184 248 248 229 230 246 332 12 12 12 10 2 353 348 351 356 356 353 353 357 360 1 1 357 353 353 355 356 359 8 22 28 26 21 16 9 4 2 4 6 6 3
319 338 21 19 326 306 172 23 347 67 201 235 219 176 181 232 243 199 196 314 345 28 19 354 348 290 274 283 294 280 284 336 40 294 220 151 47 2 214 222 230 309 354 247 210 250 289 258 220 218 256 5 14 5 5 15 11 355 342 343 351 353 352 352 356 358 357 356 354 353 356 2 1 356 4 24 32 29 24 17 9 4 5 9 10 4 2
172 132 98 128 269 267 168 180 290 250 193 211 219 184 175 196 203 134 76 11 13 21 324 306 306 276 273 287 294 278 290 28 25 262 152 93 94 247 226 180 71 40 338 232 227 243 255 241 197 145 75 46 24 6 7 20 16 -0 349 347 347 347 348 349 351 353 354 352 350 349 355 3 2 356 5 28 35 32 25 17 9 5 7 14 14 5 2
197 317 118 150 243 276 175 199 226 213 184 178 176 157 145 137 111 79 50 10 356 343 313 301 289 264 265 280 290 283 294 42 221 271 34 91 180 275 356 58 189 213 207 223 231 239 249 244 129 80 37 28 27 12 10 19 15 2 355 350 345 343 345 346 347 351 352 349 350 354 357 358 358 2 17 36 42 36 26 17 12 7 7 11 14 11 9
162 234 180 191 220 221 216 223 218 174 119 109 130 126 118 126 129 103 34 4 4 358 331 326 338 314 282 252 219 250 274 296 230 255 243 128 196 298 357 278 239 234 211 220 229 232 240 213 126 86 27 19 23 16 12 16 8 359 356 354 347 341 340 341 345 350 350 347 349 356 358 357 2 14 26 35 41 37 29 21 15 9 8 12 15 14 14
187 180 193 204 204 207 217 211 129 121 339 5 62 70 66 114 138 131 6 4 350 290 246 227 204 296 271 253 218 226 239 216 205 234 36 101 214 238 210 210 242 257 243 222 210 196 188 164 111 76 32 19 27 19 8 4 4 -0 356 350 341 333 332 338 344 348 348 349 354 1 1 -0 6 21 29 31 30 30 30 26 18 10 11 17 19 14 13
221 196 190 210 238 242 251 37 83 257 287 315 339 0 85 103 122 200 298 313 334 332 279 202 199 221 268 278 251 234 237 221 191 161 143 192 206 209 206 222 232 230 225 220 188 162 162 152 117 86 37 24 31 21 0 358 6 3 353 343 337 332 332 340 344 344 346 356 7 12 10 5 7 22 29 25 17 18 29 31 22 12 10 18 20 15 12
264 241 202 207 212 204 185 154 180 226 258 258 225 216 153 112 147 220 247 296 39 32 37 175 202 213 230 227 221 233 250 238 124 157 232 223 180 152 187 229 233 212 181 155 114 121 128 121 107 91 52 24 18 10 2 3 4 -0 354 347 341 338 339 343 341 337 345 6 18 20 13 6 10 21 28 25 18 18 32 32 20 10 7 16 20 17 15
258 252 252 341 66 106 134 189 198 194 198 201 196 184 114 121 179 225 253 74 84 89 276 272 234 220 227 232 242 290 303 317 24 243 244 242 200 159 186 227 256 192 142 133 112 113 123 120 104 96 79 46 18 5 3 6 11 13 10 358 345 342 345 343 339 339 351 10 23 23 13 6 9 18 25 28 26 25 28 20 7 1 1 10 17 17 17